Location: Bryzozowice
(50.3667°N, 18.9667°E)
Time: 13:53:47
(UTC+00:00)

Cosmos 2297 Rocket - Pass Details

Date: 24 January 2020
Orbit: 838 x 845 km, 71.0° (Epoch: 17 February)

Event Time Altitude Azimuth Distance (km) Brightness Sun altitude
Rises 15:56:15 0° 177° (S) 3,381 5.6 -5.6°
Reaches altitude 10° 15:58:53 10° 168° (SSE) 2,452 4.8 -6.0°
Maximum altitude 16:03:51 33° 106° (ESE) 1,385 3.0 -6.7°
Drops below altitude 10° 16:08:51 10° 44° (NE) 2,472 4.1 -7.5°
Enters shadow 16:10:07 - 39° (NE) 2,914 4.5 -7.7°
